• Join FlightAware (Why Join?)
  • Login
  • US Flag GB Flag 
15:41 EDT


 

Airport Tracker/Info


-or-


 

Live Flight TrackerFlight Track Log ✈ EJA922 ✈ 23-Aug-2013 ✈ CYFJ / YTM - KEWR

Flight Track Log - Related Links

Times and Time Zones

All times are in EDT time to prevent confusion due to time zone crossing. See the EJA922 flight status page for this flight to view local times or setup timezone preferences in your user account.

Time Position Orientation Groundspeed Altitude Reporting Facility
EDT Latitude Longitude Course Direction KTS MPH feet Rate Location/Type
10:13 46.4000 -74.8500 169° South 230 265 7,000  Level Montreal Center
10:14 46.3333 -74.8667 190° South 270 311 10,100 3,000 Climbing Montreal Center
10:15 46.2500 -74.8500 172° South 320 368 13,000 2,700 Climbing Montreal Center
10:16 46.1500 -74.8000 161° South 360 414 15,500 2,700 Climbing Montreal Center
10:17 46.0500 -74.7833 173° South 380 437 18,500 2,700 Climbing Montreal Center
10:18 45.9500 -74.7333 161° South 390 449 21,000 2,580 Climbing Montreal Center
10:19 45.7984 -74.6069 169° South  Level FlightAware Approximate
10:19 45.8500 -74.7167 173° South 410 472 23,700  Level Montreal Center
10:20 45.7167 -74.6667 165° South 420 483 26,300 2,520 Climbing Montreal Center
10:21 45.6167 -74.6500 173° South 430 495 28,800 2,460 Climbing Montreal Center
10:22 45.4833 -74.6000 165° South 440 506 31,300 2,340 Climbing Montreal Center
10:23 45.3667 -74.5667 169° South 440 506 33,500 1,320 Climbing Montreal Center
10:24 45.2500 -74.5167 163° South 460 529 34,000 240 Climbing Montreal Center
10:25 45.1000 -74.4667 167° South 500 575 34,000  Level Montreal Center
10:26 44.9667 -74.4500 175° South 510 587 34,000  Level Montreal Center
10:27 44.8333 -74.4167 170° South 520 598 34,000  Level Montreal Center
10:28 44.7678 -74.3903 164° South 516 594 34,000  Level Boston Center
10:29 44.6289 -74.3478 168° South 516 594 34,000  Level Boston Center
10:30 44.4919 -74.3056 168° South 516 594 34,000  Level Boston Center
10:31 44.3553 -74.2633 168° South 511 588 34,000  Level Boston Center
10:32 44.2203 -74.2244 168° South 506 582 34,000 -240 Level Boston Center
10:33 44.0833 -74.1858 169° South 506 582 33,600 -960 Descending Boston Center
10:34 43.9528 -74.1472 168° South 500 575 32,100 -1,560 Descending Boston Center
10:35 43.8178 -74.1061 168° South 500 575 30,600 -1,560 Descending Boston Center
10:36 43.6831 -74.0681 168° South 500 575 29,100 -1,440 Descending Boston Center
10:37 43.5503 -74.0300 168° South 500 575 27,700 -1,500 Descending Boston Center
10:38 43.4153 -73.9922 169° South 500 575 26,200 -1,620 Descending Boston Center
10:39 43.2803 -73.9572 169° South 500 575 24,500 -1,260 Descending Boston Center
10:40 43.1475 -73.9169 168° South 500 575 23,700 -1,200 Descending Boston Center
10:41 43.0144 -73.8825 169° South 500 575 22,200 -1,500 Descending Boston Center
10:42 42.8711 -73.8397 168° South 495 570 20,700 -1,500 Descending Boston Center
10:43 42.7422 -73.8139 172° South 485 558 19,200 -1,500 Descending Boston Center
10:44 42.6208 -73.8594 195° South 457 526 17,700 -1,440 Descending Boston Center
10:45 42.5203 -73.9050 198° South 437 503 16,400 -900 Descending Boston Center
10:46 42.3944 -73.9639 199° South 437 503 16,000 -240 Descending Boston Center
10:47 42.2958 -74.0064 198° South 426 490 16,000  Level Boston Center
10:49 42.0692 -74.1069 198° South 426 490 16,100  Climbing Boston Center
10:50 41.9456 -74.1594 198° South 426 490 16,000 -360 Descending Boston Center
10:51 41.8447 -74.2069 199° South 431 496 15,400 -1,440 Descending Boston Center
10:52 41.7231 -74.2564 197° South 419 482 13,100 -2,040 Descending Boston Center
10:53 41.6369 -74.2928 198° South 391 450 11,300 -1,920 Descending Boston Center
10:54 41.5447 -74.3344 199° South 345 397 9,400 -1,800 Descending Boston Center
10:55 41.4692 -74.3656 197° South 304 350 7,800 -780 Descending Boston Center
10:57 41.3000 -74.4333 197° South 300 345 7,100 -240 Descending New York TRACON
10:58 41.2333 -74.4667 201° Southwest 298 343 7,100  Level New York TRACON
10:59 41.1500 -74.5000 197° South 299 344 7,100  Level New York TRACON
11:00 41.0667 -74.5333 197° South 301 346 7,100 -420 Level New York TRACON
11:01 40.9833 -74.5500 189° South 295 339 6,300 -480 Descending New York TRACON
11:02 40.9000 -74.5667 189° South 297 342 6,100 -120 Descending New York TRACON
11:03 40.8167 -74.5667 180° South 295 339 6,100 -240 Level New York TRACON
11:04 40.7333 -74.5667 180° South 285 328 5,700 -480 Descending New York TRACON
11:05 40.6667 -74.5167 150° Southeast 282 325 5,100 -300 Descending New York TRACON
11:06 40.5833 -74.4833 163° South 289 333 5,100 -60 Level New York TRACON
11:07 40.5500 -74.4333 131° Southeast 250 288 5,000 -840 Descending New York TRACON
11:08 40.5167 -74.3500 118° Southeast 203 234 3,500 -960 Descending New York TRACON
11:09 40.5167 -74.2833 90° East 176 203 3,000 -420 Descending New York TRACON
11:10 40.5500 -74.2500 37° Northeast 170 196 2,700 -600 Descending New York TRACON
11:11 40.6000 -74.2333 14° North 175 201 1,900 -840 Descending New York TRACON
11:12 40.6333 -74.2000 37° Northeast 131 151 1,100 -780 Descending New York TRACON
11:13 40.6667 -74.1833 21° North 128 147 400 -720 Descending New York TRACON
11:15 40.6833 -74.1667 18° North  Level FlightAware Approximate